Date String (YYYY-MM-DD hh:mm:ss) UTC,Instrument flags,Ambient pressure (hPa),Sample flow (lpm),Bypass flow (lpm),Sample temperature (°C),Ambient temperature (°C),ASC tube jacket temperature (°C),LED temperature (°C),Box temperature (°C),Sample RH (%),Span deviation,Mass concentration (μg/m³),Mass concentration (μg/m³),Mass concentration (μg/m³)
DateTimeUTC,F1_M11,P_M11,Q1_M11,Q2_M11,T1_M11,T2_M11,T3_M11,T4_M11,T5_M11,U1_M11,ZSPAN_M11,X0_M11,X2_M11,X1_M11
2022-10-31 09:00:00,,0824.5,4.99,0.00,26.2,24.6,00.0,35.0,28.0,10.1,0000.0,0003.38,0002.63,0002.38
2022-10-31 09:01:00,,0824.5,5.02,0.00,26.2,24.7,00.0,35.0,28.1,10.2,0000.0,0003.41,0002.65,0002.40
2022-10-31 09:02:00,,0824.6,4.99,0.00,26.2,24.7,00.0,35.0,28.1,10.1,0000.0,0003.47,0002.69,0002.42
2022-10-31 09:03:00,,0824.5,5.01,0.00,26.2,24.7,00.0,35.0,28.1,10.2,0000.0,0003.42,0002.68,0002.41
2022-10-31 09:04:00,,0824.6,4.98,0.00,26.2,24.7,00.0,35.1,28.1,10.1,0000.0,0003.36,0002.66,0002.40
2022-10-31 09:05:00,,0824.5,5.02,0.00,26.2,24.7,00.0,35.1,28.0,10.1,0000.0,0003.41,0002.68,0002.40
2022-10-31 09:06:00,,0824.4,5.01,0.00,26.2,24.7,00.0,35.1,28.1,10.1,0000.0,0003.48,0002.70,0002.41
2022-10-31 09:07:00,,0824.4,5.00,0.00,26.3,24.7,00.0,35.1,28.1,10.0,0000.0,0003.33,0002.64,0002.40
2022-10-31 09:08:00,,0824.4,5.01,0.00,26.3,24.7,00.0,35.1,28.1,10.0,0000.0,0003.17,0002.59,0002.38
2022-10-31 09:09:00,,0824.4,4.99,0.00,26.3,24.7,00.0,35.1,28.1,09.9,0000.0,0003.10,0002.54,0002.35
2022-10-31 09:10:00,,0824.4,5.02,0.00,26.3,24.7,00.0,35.1,28.1,09.9,0000.0,0003.03,0002.52,0002.33
2022-10-31 09:11:00,,0824.4,4.98,0.00,26.3,24.7,00.0,35.1,28.1,09.9,0000.0,0002.95,0002.49,0002.31
2022-10-31 09:12:00,,0824.4,5.01,0.00,26.3,24.7,00.0,35.1,28.1,09.9,0000.0,0002.92,0002.46,0002.27
2022-10-31 09:13:00,,0824.4,5.00,0.00,26.3,24.7,00.0,35.1,28.1,10.0,0000.0,0002.93,0002.44,0002.26
2022-10-31 09:14:00,,0824.4,4.99,0.00,26.3,24.7,00.0,35.1,28.1,10.0,0000.0,0002.96,0002.43,0002.24
2022-10-31 09:15:00,,0824.4,5.01,0.00,26.3,24.7,00.0,35.1,28.1,10.0,0000.0,0002.93,0002.40,0002.21
2022-10-31 09:16:00,,0824.4,5.00,0.00,26.3,24.7,00.0,35.1,28.2,10.0,0000.0,0002.87,0002.38,0002.21
2022-10-31 09:17:00,,0824.4,5.00,0.00,26.3,24.7,00.0,35.1,28.2,10.0,0000.0,0002.79,0002.35,0002.18
2022-10-31 09:18:00,,0824.4,4.98,0.00,26.3,24.7,00.0,35.1,28.2,10.0,0000.0,0002.83,0002.36,0002.16
2022-10-31 09:19:00,,0824.4,5.02,0.00,26.3,24.7,00.0,35.1,28.2,10.0,0000.0,0002.93,0002.38,0002.16
2022-10-31 09:20:00,,0824.4,4.99,0.00,26.3,24.7,00.0,35.1,28.2,10.0,0000.0,0002.99,0002.40,0002.15
2022-10-31 09:21:00,,0824.4,5.00,0.00,26.3,24.7,00.0,35.1,28.2,10.0,0000.0,0003.08,0002.42,0002.15
2022-10-31 09:22:00,,0824.4,5.02,0.00,26.3,24.8,00.0,35.1,28.2,10.0,0000.0,0003.26,0002.49,0002.15
2022-10-31 09:23:00,,0824.5,4.98,0.00,26.3,24.7,00.0,35.1,28.1,10.0,0000.0,0003.32,0002.52,0002.16
2022-10-31 09:24:00,,0824.5,5.02,0.00,26.3,24.8,00.0,35.1,28.2,10.0,0000.0,0003.22,0002.48,0002.14
2022-10-31 09:25:00,,0824.4,4.99,0.00,26.3,24.8,00.0,35.1,28.2,10.0,0000.0,0003.19,0002.46,0002.13
2022-10-31 09:26:00,,0824.4,5.01,0.00,26.3,24.8,00.0,35.1,28.2,10.0,0000.0,0003.72,0002.52,0002.15
2022-10-31 09:27:00,,0824.4,4.98,0.00,26.3,24.8,00.0,35.1,28.1,10.0,0000.0,0004.59,0002.55,0002.15
2022-10-31 09:28:00,,0824.4,5.01,0.00,26.3,24.8,00.0,35.1,28.2,10.0,0000.0,0004.68,0002.59,0002.17
2022-10-31 09:29:00,,0824.4,5.01,0.00,26.3,24.8,00.0,35.1,28.2,10.0,0000.0,0004.70,0002.61,0002.19
2022-10-31 09:30:00,,0824.5,4.98,0.00,26.3,24.8,00.0,35.1,28.2,10.0,0000.0,0004.72,0002.63,0002.18
2022-10-31 09:31:00,,0824.5,4.99,0.00,26.3,24.8,00.0,35.1,28.2,10.0,0000.0,0004.77,0002.63,0002.19
2022-10-31 09:32:00,,0824.4,5.01,0.00,26.4,24.8,00.0,35.1,28.2,10.0,0000.0,0004.78,0002.63,0002.19
2022-10-31 09:33:00,,0824.5,4.99,0.00,26.4,24.8,00.0,35.1,28.2,10.0,0000.0,0004.62,0002.58,0002.19
2022-10-31 09:34:00,,0824.4,5.00,0.00,26.3,24.8,00.0,35.2,28.3,10.0,0000.0,0004.61,0002.57,0002.19
2022-10-31 09:35:00,,0824.4,5.00,0.00,26.4,24.8,00.0,35.2,28.3,10.0,0000.0,0004.69,0002.61,0002.21
2022-10-31 09:36:00,,0824.4,5.00,0.00,26.4,24.8,00.0,35.2,28.3,10.0,0000.0,0004.69,0002.60,0002.21
2022-10-31 09:37:00,,0824.4,5.02,0.00,26.4,24.8,00.0,35.2,28.2,10.1,0000.0,0004.16,0002.59,0002.21
2022-10-31 09:38:00,,0824.4,4.98,0.00,26.4,24.8,00.0,35.2,28.3,10.0,0000.0,0003.45,0002.59,0002.21
2022-10-31 09:39:00,,0824.5,5.01,0.00,26.4,24.8,00.0,35.2,28.3,10.0,0000.0,0003.41,0002.55,0002.19
2022-10-31 09:40:00,,0824.5,4.98,0.00,26.4,24.8,00.0,35.2,28.3,10.0,0000.0,0003.48,0002.56,0002.19
2022-10-31 09:41:00,,0824.4,5.01,0.00,26.4,24.8,00.0,35.2,28.2,10.0,0000.0,0003.61,0002.53,0002.20
2022-10-31 09:42:00,,0824.5,4.98,0.00,26.4,24.8,00.0,35.2,28.3,10.1,0000.0,0003.59,0002.54,0002.22
2022-10-31 09:43:00,,0824.5,5.01,0.00,26.4,24.8,00.0,35.2,28.2,10.1,0000.0,0003.59,0002.56,0002.23
2022-10-31 09:44:00,,0824.4,4.99,0.00,26.4,24.8,00.0,35.2,28.2,10.1,0000.0,0003.76,0002.62,0002.26
2022-10-31 09:45:00,,0824.4,5.01,0.00,26.4,24.8,00.0,35.2,28.2,10.1,0000.0,0003.87,0002.64,0002.26
2022-10-31 09:46:00,,0824.4,4.98,0.00,26.4,24.8,00.0,35.2,28.3,10.1,0000.0,0004.13,0002.64,0002.27
2022-10-31 09:47:00,,0824.4,5.01,0.00,26.4,24.8,00.0,35.2,28.2,10.1,0000.0,0004.58,0002.66,0002.29
2022-10-31 09:48:00,,0824.5,4.99,0.00,26.4,24.8,00.0,35.2,28.2,10.2,0000.0,0004.68,0002.70,0002.31
2022-10-31 09:49:00,,0824.5,5.00,0.00,26.4,24.8,00.0,35.2,28.2,10.2,0000.0,0004.62,0002.69,0002.31
2022-10-31 09:50:00,,0824.4,5.01,0.00,26.4,24.8,00.0,35.2,28.2,10.1,0000.0,0004.68,0002.72,0002.33
2022-10-31 09:51:00,,0824.4,4.98,0.00,26.4,24.8,00.0,35.2,28.2,10.2,0000.0,0004.67,0002.73,0002.34
2022-10-31 09:52:00,,0824.4,5.01,0.00,26.4,24.8,00.0,35.2,28.2,10.2,0000.0,0004.58,0002.76,0002.35
2022-10-31 09:53:00,,0824.4,5.01,0.00,26.4,24.8,00.0,35.2,28.2,10.3,0000.0,0004.64,0002.80,0002.35
2022-10-31 09:54:00,,0824.4,4.98,0.00,26.4,24.8,00.0,35.2,28.2,10.3,0000.0,0004.70,0002.85,0002.37
2022-10-31 09:55:00,,0824.4,5.02,0.00,26.4,24.8,00.0,35.2,28.2,10.2,0000.0,0004.58,0002.81,0002.36
2022-10-31 09:56:00,,0824.5,4.98,0.00,26.4,24.8,00.0,35.2,28.2,10.2,0000.0,0004.45,0002.78,0002.36
2022-10-31 09:57:00,,0824.5,5.00,0.00,26.4,24.8,00.0,35.2,28.2,10.2,0000.0,0004.15,0002.76,0002.37
2022-10-31 09:58:00,,0824.5,5.01,0.00,26.4,24.8,00.0,35.2,28.2,10.2,0000.0,0003.68,0002.77,0002.38
2022-10-31 09:59:00,,0824.5,4.99,0.00,26.4,24.8,00.0,35.2,28.2,10.2,0000.0,0003.64,0002.76,0002.38
